Regional Weather Roundup
Issued by NWS

Home | Current Version | Previous Version | Graphics & Text | Print | Product List | Glossary On
Versions: 1 2 3 4 5 6 7 8 9 10 11 12 13 14 15 16 17 18 19 20 21 22 23 24 25 26 27 28 29 30 31 32 33 34 35 36 37 38 39 40 41 42 43 44 45 46 47 48 49 50
830
ASUS45 KBOI 170910
RWRID

IDAHO REGIONAL WEATHER ROUNDUP
NATIONAL WEATHER SERVICE BOISE ID
200 AM MST TUE JAN 17 2017

NOTE: "FAIR" INDICATES FEW OR NO CLOUDS BELOW 12000 FEET
WITH NO SIGNIFICANT WEATHER AND/OR OBSTRUCTIONS TO VISIBILITY

IDZ012-014-171000-
SOUTHWEST IDAHO


CITY           SKY/WX    TMP DP  RH WIND       PRES   REMARKS
BOISE          NOT AVBL
CALDWELL       CLEAR     -3  -6  87 SE3       30.44F FOG
MOUNTAIN HOME  CLEAR     -1  -2  94 CALM      30.38S
$$

IDZ016-017-171000-
SOUTHCENTRAL IDAHO


CITY           SKY/WX    TMP DP  RH WIND       PRES   REMARKS
BURLEY         CLEAR      7   2  80 NE7       30.27F WCI  -5
JEROME         CLOUDY     8   7  95 NE14      30.29S FOG     WCI  -8
TWIN FALLS     CLEAR      7   4  87 SE6       30.28S WCI  -3
$$

IDZ019>023-171000-
SOUTHEAST IDAHO


CITY           SKY/WX    TMP DP  RH WIND       PRES   REMARKS
IDAHO FALLS    CLOUDY    -7 -10  87 N8        30.29F WCI -23
POCATELLO      CLOUDY     0  -3  87 CALM      30.30F
REXBURG        CLOUDY    -5  -9  83 NE3       30.28S
$$

IDZ006-010-011-018-031-032-171000-
CENTRAL IDAHO MOUNTAINS


CITY           SKY/WX    TMP DP  RH WIND       PRES   REMARKS
MCCALL         CLEAR     -1  -6  79 CALM      30.19F
HAILEY         CLEAR      0  -4  85 CALM      30.23F
STANLEY          N/A     -8 -12  83 CALM      30.22S
SALMON         CLOUDY   -15 -18  84 CALM      30.41F
CHALLIS        PTCLDY   -16 -18  91 CALM      30.30F
$$

IDZ002-004-006-007-026-171000-
NORTHERN IDAHO


CITY           SKY/WX    TMP DP  RH WIND       PRES   REMARKS
LEWISTON       CLEAR      9   6  88 NE5       30.21F WCI   1
LOWELL           N/A     15  11  83 NW6       30.30F WCI   6
COEUR D`ALENE  MOCLDY    11   9  92 CALM      30.13F
MULLAN PASS    CLEAR     22  16  78 S12       29.99F WCI  10
$$




USA.gov is the U.S. government's official web portal to all federal, state and local government web resources and services.